Regional Weather Roundup
Issued by NWS Little Rock, AR

Home | Current Version | Previous Version | Text Only | Print | Product List | Glossary On
Versions: 1 2 3 4 5 6 7 8 9 10 11 12 13 14 15 16 17 18 19 20 21 22 23 24 25 26 27 28 29 30 31 32 33 34 35 36 37 38 39 40 41 42 43 44 45 46 47 48 49 50
000
ASUS44 KLZK 241812
RWRLZK

WEATHER ROUNDUP FOR ARKANSAS
NATIONAL WEATHER SERVICE LITTLE ROCK AR
100 PM CDT SUN SEP 24 2017

NOTE: "FAIR" INDICATES FEW OR NO CLOUDS BELOW 12,000 FEET WITH NO
SIGNIFICANT WEATHER AND/OR OBSTRUCTIONS TO VISIBILITY.

ARZ001-003-010-029-241900-
NORTHWEST ARKANSAS

CITY           SKY/WX    TMP DP  RH WIND       PRES   REMARKS
FAYETTEVILLE   SUNNY     85  68  56 S12       30.01F HX  88
6HR MIN TEMP:  60; 6HR MAX TEMP:  86;

FORT SMITH     MOSUNNY   89  67  47 SW7       29.96F HX  92
6HR MIN TEMP:  70; 6HR MAX TEMP:  90;

HARRISON       MOSUNNY   89  64  43 SE14      30.03F HX  90
6HR MIN TEMP:  65; 6HR MAX TEMP:  89;

BENTONVILLE    SUNNY     86  66  51 S8        30.03F HX  88
6HR MIN TEMP:  69; 6HR MAX TEMP:  86;

ROGERS         MOSUNNY   86  67  52 SW12      30.02F HX  89
6HR MIN TEMP:  68; 6HR MAX TEMP:  86;

HIGHFILL       MOSUNNY   87  66  49 S12       30.01F HX  89
6HR MIN TEMP:  64; 6HR MAX TEMP:  87;

SPRINGDALE     MOSUNNY   86  66  51 S12G18    30.03F HX  88
$$

ARZ004-005-016-241900-
NORTH CENTRAL ARKANSAS

CITY           SKY/WX    TMP DP  RH WIND       PRES   REMARKS
BATESVILLE     MOSUNNY   89  68  49 SE9       30.00F HX  93
6HR MIN TEMP:  66; 6HR MAX TEMP:  89;

FLIPPIN        MOSUNNY   89  67  47 VRB3      30.00F HX  92
6HR MIN TEMP:  64; 6HR MAX TEMP:  89;

MTN HOME       MOSUNNY   87  67  51 CALM      30.00F HX  90
6HR MIN TEMP:  67; 6HR MAX TEMP:  88;

$$

ARZ040-041-241900-
WEST CENTRAL ARKANSAS

CITY           SKY/WX    TMP DP  RH WIND       PRES   REMARKS
MENA           MOSUNNY   90  64  43 W5        30.00F HX  91
MOUNT IDA      MOSUNNY   90  61  37 SE6       29.97F HX  90
6HR MIN TEMP:  65; 6HR MAX TEMP:  90;

$$

ARZ009-017-025-026-028-241900-
NORTHEAST ARKANSAS

CITY           SKY/WX    TMP DP  RH WIND       PRES   REMARKS
CORNING        FAIR      90  72  55 VRB3G12   30.00F HX  96
JONESBORO      SUNNY     89  70  53 CALM      30.00F HX  94
6HR MIN TEMP:  69; 6HR MAX TEMP:  90;

NEWPORT        SUNNY     90  65  43 S5        30.00F HX  92
6HR MIN TEMP:  66; 6HR MAX TEMP:  90;

BLYTHEVILLE    MOSUNNY   89  70  53 S8        30.01F HX  94
6HR MIN TEMP:  69; 6HR MAX TEMP:  90;

$$

ARZ022-023-033-042-044-241900-
CENTRAL ARKANSAS

CITY           SKY/WX    TMP DP  RH WIND       PRES   REMARKS
LITTLE ROCK    MOSUNNY   88  69  53 E7        29.98F HX  92
6HR MIN TEMP:  70; 6HR MAX TEMP:  89;

N LITTLE ROCK    N/A     89  69  52 S7        29.98F HX  93
6HR MIN TEMP:  71; 6HR MAX TEMP:  89;

JACKSONVILLE   MOSUNNY   91  69  48 CALM      29.98F HX  95
6HR MIN TEMP:  69; 6HR MAX TEMP:  91; 6HR PCP: TRACE;

CONWAY           N/A     91  68  46 VRB5      29.96F HX  95
SEARCY         SUNNY     91  71  51 S8        30.00F HX  97
6HR MIN TEMP:  69; 6HR MAX TEMP:  91;

HOT SPRINGS    MOSUNNY   91  66  43 VRB7      29.98F HX  93
6HR MIN TEMP:  70; 6HR MAX TEMP:  91;

RUSSELLVILLE   MOSUNNY   88  68  51 SE6       29.97F HX  91
6HR MIN TEMP:  68; 6HR MAX TEMP:  90;

CLINTON        FAIR      88  70  55 SW7       30.00F HAZE    HX  92
$$

ARZ036-241900-
EAST ARKANSAS

CITY           SKY/WX    TMP DP  RH WIND       PRES   REMARKS
WEST MEMPHIS   MOSUNNY   89  68  49 MISG      29.99F HX  93
6HR MIN TEMP:  69; 6HR MAX TEMP:  90;

$$

ARZ050-053-066-070-073-241900-
SOUTHWEST ARKANSAS

CITY           SKY/WX    TMP DP  RH WIND       PRES   REMARKS
ARKADELPHIA    FAIR      90  69  50 S5        29.97F HX  94
6HR MIN TEMP:  65; 6HR MAX TEMP:  91;

CAMDEN         SUNNY     93  68  43 NE6       29.95F HX  97
TEXARKANA      MOSUNNY   87  67  51 VRB6      29.96F HX  90
6HR MIN TEMP:  68; 6HR MAX TEMP:  88;

EL DORADO      MOSUNNY   86  66  51 E5        29.97F HX  88
6HR MIN TEMP:  67; 6HR MAX TEMP:  89;

DE QUEEN       MOSUNNY   89  69  51 S9        29.95F HX  93
6HR MIN TEMP:  68; 6HR MAX TEMP:  89;

$$

ARZ056-057-069-241900-
SOUTHEAST ARKANSAS

CITY           SKY/WX    TMP DP  RH WIND       PRES   REMARKS
PINE BLUFF     MOSUNNY   89  66  46 CALM      29.98F HX  91
6HR MIN TEMP:  66; 6HR MAX TEMP:  90;

STUTTGART      MOSUNNY   91  65  41 SE10      29.99F HX  93
6HR MIN TEMP:  69; 6HR MAX TEMP:  91;

MONTICELLO     MOSUNNY   88  67  49 E7        29.98F HX  91
6HR MIN TEMP:  69; 6HR MAX TEMP:  89;


$$





USA.gov is the U.S. government's official web portal to all federal, state and local government web resources and services.